QPF
0.00 0.03 0.04 0.01 0.01 0.01 0.01 0.01 0.01 0.02 0.00 0.02 0.02 0.01 0.02 0.01 0.00 0.00 0.00 0.00 0.00 0.00 0.00 0.00 0.00 0.00 0.00 0.00 0.00 0.00 0.00 0.00 0.00 0.00 0.00 0.00 0.00 0.00 0.00 0.00 0.00 0.00 0.00 0.00 0.00
0.00 0.02 0.02 0.00 0.01 0.02 0.03 0.02 0.02 0.02 0.01 0.00 0.00 0.00 0.01 0.00 0.00 0.00 0.00 0.00 0.00 0.00 0.00 0.00 0.00 0.00 0.00 0.00 0.00 0.00 0.00 0.00 0.00 0.00 0.00 0.00 0.00 0.00 0.00 0.00 0.00 0.00 0.00 0.00 0.00
0.00 0.01 0.02 0.02 0.01 0.01 0.02 0.04 0.04 0.01 0.01 0.00 0.00 0.00 0.01 0.00 0.00 0.00 0.00 0.00 0.00 0.00 0.00 0.00 0.00 0.00 0.00 0.00 0.00 0.00 0.00 0.00 0.00 0.00 0.00 0.00 0.00 0.00 0.00 0.00 0.00 0.00 0.00 0.00 0.00
0.02 0.01 0.04 0.02 0.01 0.01 0.02 0.04 0.06 0.05 0.00 0.00 0.00 0.00 0.00 0.00 0.00 0.00 0.00 0.00 0.00 0.00 0.00 0.00 0.00 0.00 0.00 0.00 0.00 0.00 0.00 0.00 0.00 0.00 0.00 0.00 0.00 0.00 0.00 0.00 0.00 0.00 0.00 0.00 0.00
0.04 0.01 0.02 0.02 0.01 0.00 0.01 0.03 0.07 0.12 0.03 0.00 0.00 0.00 0.00 0.00 0.00 0.00 0.00 0.00 0.00 0.00 0.00 0.00 0.00 0.00 0.00 0.00 0.00 0.00 0.00 0.00 0.00 0.00 0.00 0.00 0.00 0.00 0.00 0.00 0.00 0.00 0.00 0.00 0.00
0.05 0.02 0.00 0.01 0.01 0.01 0.01 0.02 0.07 0.12 0.07 0.01 0.00 0.00 0.00 0.00 0.00 0.00 0.00 0.00 0.00 0.00 0.00 0.00 0.00 0.00 0.00 0.00 0.00 0.00 0.00 0.00 0.00 0.00 0.00 0.00 0.00 0.00 0.00 0.00 0.00 0.00 0.00 0.00 0.00
0.03 0.04 0.00 0.00 0.00 0.01 0.00 0.01 0.03 0.04 0.08 0.01 0.00 0.00 0.00 0.00 0.00 0.00 0.00 0.00 0.00 0.00 0.00 0.00 0.00 0.00 0.00 0.00 0.00 0.00 0.00 0.00 0.00 0.00 0.00 0.00 0.00 0.00 0.00 0.00 0.00 0.00 0.00 0.00 0.00
0.01 0.03 0.02 0.00 0.00 0.01 0.00 0.01 0.03 0.04 0.07 0.03 0.00 0.00 0.00 0.00 0.00 0.00 0.00 0.00 0.00 0.00 0.00 0.00 0.00 0.00 0.00 0.00 0.00 0.00 0.00 0.00 0.00 0.00 0.00 0.00 0.00 0.00 0.00 0.00 0.00 0.00 0.00 0.00 0.00
0.00 0.01 0.02 0.00 0.00 0.01 0.00 0.01 0.02 0.04 0.07 0.02 0.00 0.00 0.00 0.00 0.00 0.00 0.00 0.00 0.00 0.00 0.00 0.00 0.00 0.00 0.00 0.00 0.00 0.00 0.00 0.00 0.00 0.00 0.00 0.00 0.00 0.00 0.00 0.00 0.00 0.00 0.00 0.00 0.00
0.00 0.01 0.01 0.00 0.00 0.01 0.00 0.01 0.03 0.02 0.02 0.00 0.00 0.00 0.00 0.00 0.00 0.00 0.00 0.00 0.00 0.00 0.00 0.00 0.00 0.00 0.00 0.00 0.00 0.00 0.00 0.00 0.00 0.00 0.00 0.00 0.00 0.00 0.00 0.00 0.00 0.00 0.00 0.00 0.00
0.00 0.00 0.00 0.00 0.00 0.02 0.01 0.01 0.00 0.00 0.00 0.00 0.00 0.00 0.00 0.00 0.00 0.00 0.00 0.00 0.00 0.00 0.00 0.00 0.00 0.00 0.00 0.00 0.00 0.00 0.00 0.00 0.00 0.00 0.00 0.00 0.00 0.00 0.00 0.00 0.00 0.00 0.00 0.00 0.00
0.00 0.00 0.00 0.00 0.01 0.02 0.02 0.00 0.00 0.00 0.00 0.00 0.00 0.00 0.00 0.00 0.00 0.00 0.00 0.00 0.00 0.00 0.00 0.00 0.00 0.00 0.00 0.00 0.00 0.00 0.00 0.00 0.00 0.00 0.00 0.00 0.00 0.00 0.00 0.00 0.00 0.00 0.00 0.00 0.00
0.00 0.00 0.00 0.00 0.01 0.04 0.00 0.00 0.00 0.00 0.00 0.00 0.00 0.00 0.00 0.00 0.00 0.00 0.00 0.00 0.00 0.00 0.00 0.00 0.00 0.00 0.00 0.00 0.00 0.00 0.00 0.00 0.00 0.00 0.00 0.00 0.00 0.00 0.00 0.00 0.00 0.00 0.00 0.00 0.00
0.00 0.00 0.00 0.00 0.01 0.02 0.00 0.00 0.00 0.00 0.00 0.00 0.00 0.00 0.00 0.00 0.00 0.00 0.00 0.00 0.00 0.00 0.00 0.00 0.00 0.00 0.00 0.00 0.00 0.00 0.00 0.00 0.00 0.00 0.00 0.00 0.00 0.00 0.00 0.00 0.00 0.00 0.00 0.00 0.00
0.00 0.00 0.01 0.01 0.02 0.03 0.01 0.00 0.00 0.00 0.00 0.00 0.00 0.00 0.00 0.00 0.00 0.00 0.00 0.00 0.00 0.00 0.00 0.00 0.00 0.00 0.00 0.00 0.00 0.00 0.00 0.00 0.00 0.00 0.00 0.00 0.00 0.00 0.00 0.00 0.00 0.00 0.00 0.00 0.00
0.00 0.00 0.00 0.00 0.02 0.03 0.00 0.00 0.00 0.00 0.00 0.00 0.01 0.00 0.00 0.00 0.00 0.00 0.00 0.00 0.00 0.00 0.00 0.00 0.00 0.00 0.00 0.00 0.00 0.00 0.00 0.00 0.00 0.00 0.00 0.00 0.00 0.00 0.00 0.00 0.00 0.00 0.00 0.00 0.00
0.00 0.00 0.00 0.00 0.01 0.01 0.00 0.00 0.00 0.00 0.00 0.00 0.01 0.00 0.00 0.00 0.00 0.00 0.00 0.00 0.00 0.00 0.00 0.00 0.00 0.00 0.00 0.00 0.00 0.00 0.00 0.00 0.00 0.00 0.00 0.00 0.00 0.00 0.00 0.00 0.00 0.00 0.00 0.00 0.00
0.01 0.00 0.00 0.01 0.02 0.00 0.00 0.00 0.00 0.00 0.00 0.00 0.00 0.00 0.01 0.00 0.00 0.00 0.00 0.00 0.00 0.00 0.00 0.00 0.00 0.00 0.00 0.00 0.00 0.00 0.00 0.00 0.00 0.00 0.00 0.00 0.00 0.00 0.00 0.00 0.00 0.00 0.00 0.00 0.00
0.00 0.00 0.00 0.02 0.03 0.01 0.00 0.00 0.00 0.00 0.00 0.00 0.00 0.00 0.00 0.00 0.00 0.00 0.00 0.00 0.00 0.00 0.00 0.00 0.00 0.00 0.00 0.00 0.00 0.00 0.00 0.00 0.00 0.00 0.00 0.00 0.00 0.00 0.00 0.00 0.00 0.00 0.00 0.00 0.00
0.00 0.00 0.00 0.01 0.00 0.00 0.00 0.00 0.00 0.00 0.00 0.00 0.00 0.00 0.00 0.00 0.00 0.00 0.00 0.00 0.00 0.00 0.00 0.00 0.00 0.00 0.00 0.00 0.00 0.00 0.00 0.00 0.00 0.00 0.00 0.00 0.00 0.00 0.00 0.00 0.00 0.00 0.00 0.00 0.00
0.00 0.00 0.00 0.00 0.00 0.00 0.00 0.00 0.00 0.00 0.00 0.00 0.00 0.00 0.00 0.00 0.00 0.00 0.00 0.00 0.00 0.00 0.00 0.00 0.00 0.00 0.00 0.00 0.00 0.00 0.00 0.00 0.00 0.00 0.00 0.00 0.00 0.00 0.00 0.00 0.00 0.00 0.00 0.00 0.00
0.00 0.00 0.00 0.00 0.00 0.00 0.00 0.00 0.00 0.00 0.00 0.00 0.00 0.00 0.00 0.00 0.00 0.00 0.00 0.00 0.00 0.00 0.00 0.00 0.00 0.00 0.00 0.00 0.00 0.00 0.00 0.00 0.00 0.00 0.00 0.00 0.00 0.00 0.00 0.00 0.00 0.00 0.00 0.00 0.00
0.00 0.00 0.00 0.00 0.00 0.00 0.00 0.00 0.00 0.00 0.00 0.00 0.00 0.00 0.00 0.00 0.00 0.00 0.00 0.00 0.00 0.00 0.00 0.00 0.00 0.00 0.00 0.00 0.00 0.00 0.00 0.00 0.00 0.00 0.00 0.00 0.00 0.00 0.00 0.00 0.00 0.00 0.00 0.00 0.00
0.00 0.00 0.00 0.00 0.00 0.00 0.00 0.00 0.00 0.00 0.00 0.00 0.00 0.00 0.00 0.00 0.00 0.00 0.00 0.00 0.00 0.00 0.00 0.00 0.00 0.00 0.00 0.00 0.00 0.00 0.00 0.00 0.00 0.00 0.00 0.00 0.00 0.00 0.00 0.00 0.00 0.00 0.00 0.00 0.00
0.00 0.00 0.00 0.00 0.00 0.00 0.00 0.00 0.00 0.00 0.00 0.00 0.00 0.00 0.00 0.00 0.00 0.00 0.00 0.00 0.00 0.00 0.00 0.00 0.00 0.00 0.00 0.00 0.00 0.00 0.00 0.00 0.00 0.00 0.00 0.00 0.00 0.00 0.00 0.00 0.00 0.00 0.00 0.00 0.00
0.00 0.00 0.00 0.00 0.00 0.00 0.00 0.00 0.00 0.00 0.00 0.00 0.00 0.00 0.00 0.00 0.00 0.00 0.00 0.00 0.00 0.00 0.00 0.00 0.00 0.00 0.00 0.00 0.00 0.00 0.00 0.00 0.00 0.00 0.00 0.00 0.00 0.00 0.00 0.00 0.00 0.00 0.00 0.00 0.00
0.00 0.00 0.00 0.00 0.00 0.00 0.00 0.00 0.00 0.00 0.00 0.00 0.00 0.00 0.00 0.00 0.00 0.00 0.00 0.00 0.00 0.00 0.00 0.00 0.00 0.00 0.00 0.00 0.00 0.00 0.00 0.00 0.00 0.00 0.00 0.00 0.00 0.00 0.00 0.00 0.00 0.00 0.00 0.00 0.00
MSLP
1014.82 1014.62 1014.30 1014.20 1013.95 1013.72 1012.56 1012.43 1012.47 1012.53 1012.79 1013.21 1013.31 1013.39 1013.52 1013.70 1013.67 1014.12 1014.46 1014.09 1014.05 1013.86 1013.81 1013.61 1012.64 1012.26 1012.43 1012.11 1011.98 1012.38 1013.13 1013.45 1013.45 1013.36 1013.19 1013.46 1013.60 1013.89 1013.89 1014.56 1015.26 1015.67 1015.99 1016.40 1017.42
1014.59 1014.32 1013.98 1013.77 1013.50 1013.31 1012.31 1011.94 1011.82 1012.10 1012.66 1013.25 1013.69 1013.24 1012.96 1014.45 1013.56 1013.88 1013.63 1014.10 1014.33 1014.33 1014.13 1014.15 1012.43 1012.46 1012.54 1012.37 1012.32 1012.71 1013.33 1013.09 1013.06 1013.10 1013.22 1013.32 1013.16 1013.60 1014.26 1014.90 1015.87 1016.01 1016.10 1016.64 1017.43
1014.43 1014.19 1013.70 1013.46 1013.26 1013.00 1012.57 1011.68 1011.82 1012.10 1011.74 1012.69 1013.92 1013.54 1013.30 1013.89 1014.33 1013.42 1014.04 1014.48 1014.64 1014.61 1015.29 1013.82 1013.26 1013.05 1012.79 1012.52 1012.47 1012.64 1012.81 1012.92 1013.38 1013.28 1013.37 1013.39 1013.68 1013.77 1014.35 1015.18 1015.23 1015.84 1016.50 1016.99 1017.61
1014.34 1013.98 1013.74 1013.24 1013.12 1012.90 1012.44 1012.10 1011.95 1011.68 1011.46 1012.44 1013.40 1013.62 1013.71 1014.03 1014.82 1014.32 1014.37 1014.78 1015.42 1015.38 1014.74 1013.38 1013.23 1013.04 1012.71 1012.52 1012.33 1012.82 1013.13 1013.11 1013.53 1013.42 1013.43 1013.52 1013.65 1014.09 1014.33 1014.39 1014.52 1015.00 1015.52 1016.63 1017.37
1014.10 1013.70 1013.62 1013.23 1012.27 1012.47 1011.94 1011.99 1011.66 1011.61 1011.59 1011.53 1012.71 1013.28 1013.29 1014.33 1015.10 1014.05 1014.34 1014.73 1015.34 1015.31 1013.97 1013.39 1013.21 1012.69 1012.58 1012.58 1012.77 1013.20 1013.71 1013.62 1013.71 1013.79 1013.73 1013.59 1014.10 1014.31 1014.40 1014.43 1014.95 1015.71 1016.17 1016.47 1017.02
1013.72 1013.44 1012.96 1012.34 1012.24 1012.05 1011.82 1011.83 1011.56 1011.44 1011.44 1011.52 1011.77 1012.22 1014.51 1015.50 1014.55 1014.21 1014.28 1014.38 1014.75 1014.50 1013.66 1013.11 1012.79 1012.56 1012.65 1012.88 1013.14 1013.52 1014.06 1014.19 1014.04 1014.36 1014.27 1014.10 1014.54 1014.39 1014.81 1014.77 1015.39 1015.98 1016.32 1016.70 1016.88
1013.41 1013.05 1012.79 1012.37 1012.10 1011.82 1011.65 1011.21 1010.83 1010.53 1010.57 1011.57 1011.63 1012.39 1015.22 1014.68 1014.40 1014.35 1014.58 1014.37 1013.97 1013.81 1013.21 1012.83 1012.84 1012.81 1012.79 1013.29 1013.60 1014.21 1014.94 1015.01 1014.86 1014.84 1014.92 1014.67 1015.18 1015.08 1015.05 1015.43 1015.89 1016.30 1016.52 1016.78 1016.90
1013.28 1013.00 1012.50 1012.16 1011.83 1011.78 1011.58 1011.02 1010.56 1010.32 1010.61 1011.52 1012.05 1013.16 1013.94 1014.27 1014.29 1014.61 1014.77 1013.97 1013.28 1013.58 1013.49 1013.06 1012.95 1012.76 1013.10 1013.46 1014.08 1014.85 1015.48 1015.63 1015.42 1015.33 1015.29 1015.09 1015.45 1015.25 1015.44 1015.73 1016.35 1016.60 1016.89 1017.00 1017.04
1012.74 1012.80 1012.45 1012.00 1011.85 1011.65 1011.46 1011.11 1010.50 1010.53 1010.75 1011.66 1012.45 1013.44 1014.00 1014.27 1014.29 1013.92 1014.26 1014.01 1013.33 1013.56 1014.35 1013.43 1012.69 1013.28 1013.74 1014.14 1015.33 1015.86 1016.02 1016.02 1015.98 1015.71 1015.57 1015.65 1015.81 1015.50 1015.70 1016.12 1016.69 1016.80 1017.04 1017.11 1017.04
1012.25 1012.29 1012.38 1011.97 1011.71 1011.61 1011.28 1010.91 1010.38 1010.64 1011.11 1012.09 1012.74 1013.47 1014.12 1013.11 1013.35 1013.94 1013.78 1013.56 1013.31 1013.26 1014.69 1013.66 1013.54 1013.96 1014.40 1014.64 1015.19 1015.93 1016.23 1016.25 1016.03 1016.15 1016.12 1016.21 1016.15 1016.09 1016.12 1016.42 1016.73 1016.88 1016.99 1017.15 1017.04
1012.20 1012.17 1012.19 1012.18 1011.82 1011.76 1011.49 1010.84 1011.10 1011.59 1011.13 1011.22 1011.40 1012.08 1012.38 1012.42 1013.71 1013.88 1014.10 1013.50 1013.20 1013.48 1014.12 1014.71 1014.39 1013.93 1014.24 1014.38 1014.60 1015.27 1015.93 1016.42 1016.65 1016.61 1016.60 1016.77 1016.77 1016.50 1016.41 1016.54 1016.95 1017.06 1016.84 1017.02 1017.10
1012.03 1012.13 1012.09 1011.87 1011.47 1011.60 1011.48 1011.55 1010.99 1010.99 1011.30 1011.31 1011.48 1011.71 1012.14 1012.27 1013.75 1014.33 1013.68 1013.90 1013.78 1014.01 1014.02 1014.98 1014.21 1014.05 1014.42 1014.75 1014.83 1015.45 1016.18 1016.94 1017.38 1017.22 1017.20 1017.35 1017.09 1016.67 1016.65 1016.40 1016.38 1016.66 1016.82 1017.08 1017.49
1011.56 1011.78 1011.70 1011.48 1011.30 1011.54 1011.40 1011.34 1011.02 1010.72 1011.61 1012.34 1012.28 1012.17 1012.19 1012.89 1013.45 1014.01 1013.62 1014.54 1014.53 1014.46 1014.46 1014.50 1014.37 1014.15 1014.56 1015.13 1015.23 1015.58 1016.21 1017.32 1017.57 1017.99 1018.09 1018.13 1017.83 1016.90 1016.12 1016.07 1016.02 1015.96 1016.18 1016.81 1017.30
1011.15 1011.40 1011.45 1011.61 1012.02 1011.73 1011.67 1011.23 1010.94 1011.08 1012.01 1013.23 1012.73 1012.33 1012.85 1013.17 1013.75 1013.82 1013.93 1014.87 1015.29 1015.09 1014.92 1014.88 1014.44 1014.43 1014.88 1015.17 1015.16 1016.02 1016.46 1017.35 1018.02 1018.54 1019.16 1018.96 1018.41 1017.24 1016.25 1015.98 1015.81 1015.70 1016.11 1016.62 1017.34
1011.02 1011.37 1011.49 1011.74 1012.13 1012.06 1011.64 1011.45 1011.16 1010.92 1011.99 1013.26 1012.87 1012.44 1012.77 1013.20 1013.99 1014.10 1014.56 1015.05 1015.09 1015.13 1015.29 1015.79 1015.39 1015.28 1015.14 1014.87 1015.23 1016.52 1016.88 1017.95 1018.99 1019.59 1019.89 1019.92 1019.68 1017.24 1016.91 1016.45 1015.70 1015.57 1016.10 1016.80 1017.25
1011.03 1011.32 1011.66 1011.95 1011.95 1011.65 1011.51 1011.83 1011.80 1012.19 1012.45 1012.83 1012.53 1012.62 1013.37 1013.78 1014.17 1014.49 1015.05 1015.43 1015.55 1015.86 1016.10 1016.76 1016.29 1015.99 1015.43 1015.49 1015.63 1016.87 1017.78 1019.20 1020.31 1021.00 1021.08 1020.05 1019.79 1017.90 1017.01 1016.03 1015.84 1016.03 1016.82 1017.26 1017.72
1011.08 1011.36 1011.67 1012.07 1012.46 1012.15 1012.15 1012.30 1012.73 1012.26 1012.55 1012.57 1012.36 1012.72 1013.45 1013.83 1014.29 1014.69 1014.98 1015.39 1015.57 1016.42 1017.12 1017.89 1017.12 1016.35 1015.94 1016.19 1016.83 1016.89 1018.18 1020.83 1022.31 1022.55 1021.55 1020.75 1020.35 1017.32 1016.39 1016.12 1015.97 1016.27 1017.39 1017.88 1018.25
1011.45 1011.66 1012.27 1012.37 1012.55 1012.56 1012.84 1013.38 1013.27 1012.74 1012.58 1012.42 1012.34 1012.98 1013.38 1013.74 1014.41 1014.96 1015.30 1015.39 1015.44 1015.61 1016.41 1017.46 1018.34 1016.99 1016.52 1016.20 1016.53 1017.30 1017.80 1019.77 1021.68 1022.81 1022.08 1021.42 1019.65 1016.91 1016.52 1016.34 1016.27 1016.79 1017.61 1018.31 1018.82
1011.87 1012.53 1013.02 1013.20 1012.95 1013.01 1013.62 1013.94 1013.89 1013.18 1012.92 1012.63 1012.87 1013.12 1013.20 1013.62 1014.05 1014.59 1015.11 1015.30 1014.68 1014.75 1015.45 1016.61 1017.14 1016.95 1016.75 1016.53 1016.66 1017.58 1018.20 1019.26 1021.08 1022.97 1022.65 1020.73 1018.92 1016.97 1016.82 1017.13 1017.36 1017.56 1018.04 1018.69 1019.20
1012.53 1013.40 1013.94 1013.49 1013.33 1013.53 1014.37 1014.49 1014.19 1013.71 1013.34 1013.05 1012.95 1013.11 1013.03 1013.45 1013.88 1014.03 1014.67 1014.48 1014.12 1014.06 1014.36 1015.37 1016.68 1017.10 1017.13 1017.04 1017.06 1017.05 1017.90 1019.50 1021.03 1022.62 1022.54 1020.56 1019.29 1017.32 1017.18 1017.22 1017.62 1018.07 1018.31 1018.80 1019.29
1013.20 1014.35 1014.51 1013.75 1013.81 1014.39 1015.30 1015.15 1014.54 1014.21 1013.86 1013.78 1013.58 1013.33 1013.01 1013.05 1013.16 1013.65 1014.01 1013.48 1013.86 1013.98 1014.37 1015.00 1015.71 1017.68 1017.54 1017.50 1017.60 1017.74 1017.98 1019.03 1020.05 1020.99 1020.99 1020.48 1018.34 1016.20 1016.12 1016.50 1016.99 1017.41 1018.02 1018.59 1019.11
1014.41 1015.38 1014.82 1014.23 1015.12 1015.94 1016.02 1015.83 1015.30 1014.78 1014.33 1014.31 1014.13 1013.81 1013.25 1013.51 1013.42 1013.75 1013.40 1013.05 1013.06 1013.35 1014.39 1014.91 1015.99 1017.38 1017.82 1017.79 1017.85 1017.77 1017.89 1018.47 1019.61 1020.59 1020.59 1020.04 1017.56 1015.97 1015.62 1015.57 1016.21 1017.04 1017.64 1018.16 1018.69
1015.95 1016.25 1015.36 1015.00 1016.40 1016.75 1016.45 1015.97 1015.49 1015.12 1014.83 1014.68 1014.53 1014.14 1013.78 1014.02 1013.97 1013.65 1013.27 1012.73 1012.89 1013.05 1013.71 1014.79 1016.08 1017.71 1018.92 1018.87 1018.35 1017.98 1017.91 1018.29 1018.96 1019.51 1019.61 1019.22 1017.15 1015.98 1015.71 1015.75 1016.05 1016.69 1017.24 1017.74 1018.39
1016.36 1017.39 1017.07 1016.86 1017.09 1017.23 1017.07 1016.57 1015.99 1015.29 1015.04 1014.91 1015.03 1014.75 1014.62 1014.60 1014.31 1014.00 1013.55 1013.29 1013.09 1013.51 1013.88 1014.57 1015.71 1016.16 1016.66 1016.64 1017.17 1017.66 1017.57 1017.97 1018.34 1019.11 1018.65 1017.62 1016.52 1015.83 1015.71 1015.82 1016.11 1016.48 1016.78 1017.29 1017.80
1016.89 1017.95 1018.22 1018.14 1017.87 1017.79 1017.46 1016.92 1016.28 1015.69 1015.13 1014.95 1014.84 1014.74 1015.07 1014.95 1014.76 1014.46 1013.93 1013.53 1013.64 1013.81 1014.24 1014.63 1015.76 1016.59 1016.64 1016.37 1016.27 1016.10 1016.36 1016.89 1016.97 1017.21 1017.14 1016.41 1015.97 1014.94 1014.69 1014.80 1015.10 1015.64 1016.32 1016.89 1017.32
1017.17 1018.07 1018.34 1018.54 1018.44 1018.47 1018.02 1017.30 1016.64 1016.03 1015.55 1015.36 1015.17 1015.02 1014.99 1014.74 1014.64 1014.76 1014.52 1014.10 1014.18 1014.30 1014.52 1014.92 1015.89 1016.69 1017.44 1017.11 1016.87 1016.49 1015.98 1015.81 1016.01 1016.28 1016.06 1015.80 1015.25 1014.24 1013.85 1014.32 1014.82 1015.15 1015.92 1016.29 1016.58
1016.69 1017.08 1017.63 1018.46 1018.79 1018.90 1018.33 1017.06 1016.55 1016.04 1015.53 1014.94 1014.97 1014.91 1015.13 1014.17 1013.93 1014.35 1014.71 1014.72 1014.75 1014.33 1014.45 1015.13 1016.15 1017.51 1018.40 1018.07 1017.28 1016.79 1015.03 1015.25 1015.23 1014.88 1014.68 1014.35 1013.62 1013.54 1013.64 1013.84 1013.84 1014.37 1014.88 1015.26 1015.56
Thickness
5468 5469 5473 5477 5489 5509 5536 5553 5566 5577 5585 5589 5598 5605 5611 5621 5633 5634 5641 5656 5663 5672 5678 5686 5698 5704 5707 5710 5718 5715 5691 5684 5697 5702 5709 5717 5716 5722 5729 5720 5720 5721 5715 5718 5716
5461 5461 5464 5467 5481 5498 5522 5542 5560 5572 5578 5582 5584 5597 5606 5605 5623 5628 5642 5647 5651 5659 5668 5670 5689 5692 5692 5699 5704 5695 5681 5694 5707 5709 5708 5716 5718 5718 5716 5713 5705 5710 5718 5718 5713
5454 5452 5455 5461 5473 5492 5510 5535 5549 5559 5577 5580 5574 5584 5596 5601 5612 5625 5628 5633 5640 5647 5647 5668 5675 5680 5683 5693 5697 5696 5688 5701 5704 5706 5710 5712 5711 5719 5709 5707 5710 5707 5711 5712 5708
5447 5447 5451 5461 5472 5485 5501 5516 5534 5551 5567 5572 5571 5574 5585 5594 5605 5611 5620 5626 5625 5630 5645 5665 5669 5671 5676 5680 5696 5684 5693 5698 5700 5703 5710 5709 5714 5709 5715 5717 5722 5722 5722 5714 5708
5442 5445 5449 5457 5475 5486 5500 5510 5529 5543 5560 5572 5571 5574 5584 5581 5582 5603 5610 5617 5615 5625 5645 5656 5661 5671 5668 5679 5686 5680 5684 5691 5696 5698 5701 5707 5701 5704 5710 5720 5717 5715 5714 5713 5710
5439 5442 5449 5461 5472 5485 5499 5505 5521 5537 5550 5562 5572 5580 5566 5567 5581 5593 5602 5613 5618 5626 5641 5652 5659 5669 5669 5673 5676 5682 5678 5680 5690 5689 5693 5696 5695 5706 5706 5712 5709 5708 5708 5708 5709
5435 5441 5444 5456 5469 5479 5491 5505 5522 5543 5551 5555 5567 5574 5552 5565 5576 5584 5592 5604 5617 5626 5638 5650 5656 5660 5667 5664 5674 5670 5662 5670 5677 5682 5682 5692 5684 5689 5702 5703 5701 5702 5702 5703 5706
5429 5435 5443 5455 5467 5480 5491 5505 5518 5534 5541 5547 5554 5556 5561 5563 5570 5576 5584 5599 5616 5621 5629 5641 5648 5655 5658 5663 5661 5656 5652 5650 5666 5674 5677 5683 5667 5687 5695 5694 5692 5695 5695 5696 5699
5431 5432 5438 5450 5466 5478 5491 5501 5513 5524 5536 5536 5543 5546 5555 5560 5566 5575 5580 5590 5607 5617 5615 5630 5642 5640 5646 5638 5631 5638 5631 5645 5651 5666 5669 5673 5670 5683 5688 5685 5684 5688 5690 5692 5695
5432 5435 5435 5449 5463 5477 5489 5502 5514 5518 5523 5522 5530 5543 5546 5567 5569 5570 5577 5590 5601 5611 5605 5615 5622 5623 5623 5625 5623 5624 5634 5644 5647 5656 5663 5661 5667 5675 5680 5679 5679 5682 5685 5687 5691
5429 5432 5436 5444 5459 5472 5484 5499 5505 5509 5517 5534 5549 5554 5558 5564 5557 5563 5569 5583 5595 5601 5598 5600 5609 5609 5622 5635 5645 5642 5642 5640 5642 5652 5655 5650 5657 5662 5669 5674 5672 5674 5679 5681 5687
5428 5429 5435 5446 5459 5470 5481 5488 5502 5512 5514 5525 5535 5545 5548 5558 5551 5554 5569 5574 5580 5582 5595 5592 5606 5624 5627 5630 5635 5635 5628 5626 5631 5641 5647 5647 5651 5659 5664 5671 5673 5673 5675 5676 5677
5430 5431 5436 5447 5459 5468 5478 5488 5498 5509 5509 5513 5524 5533 5542 5548 5550 5554 5566 5562 5570 5577 5585 5593 5607 5610 5615 5614 5622 5628 5622 5617 5628 5631 5634 5638 5637 5652 5667 5668 5675 5678 5681 5676 5673
5434 5434 5437 5442 5452 5463 5474 5486 5496 5504 5502 5500 5512 5525 5530 5538 5540 5553 5560 5558 5558 5567 5578 5588 5598 5602 5605 5608 5619 5615 5626 5621 5617 5619 5611 5626 5613 5639 5657 5664 5670 5678 5674 5672 5668
5434 5433 5436 5440 5446 5458 5470 5480 5493 5504 5516 5492 5501 5517 5524 5530 5535 5542 5547 5551 5557 5564 5573 5571 5583 5587 5596 5610 5617 5612 5614 5611 5608 5603 5607 5610 5603 5632 5645 5655 5668 5672 5672 5667 5663
5433 5434 5433 5437 5446 5459 5470 5475 5486 5491 5504 5491 5502 5508 5509 5522 5531 5533 5538 5543 5549 5550 5558 5555 5570 5576 5592 5595 5605 5598 5600 5591 5584 5585 5572 5602 5605 5617 5636 5654 5665 5665 5657 5653 5654
5432 5435 5435 5434 5441 5452 5462 5469 5478 5491 5477 5494 5505 5509 5510 5515 5521 5520 5531 5538 5538 5532 5533 5533 5554 5567 5579 5581 5584 5592 5590 5528 5544 5532 5572 5587 5592 5626 5644 5648 5657 5654 5644 5641 5642
5429 5433 5431 5434 5439 5446 5451 5455 5472 5474 5484 5492 5508 5508 5511 5512 5516 5516 5520 5530 5543 5545 5541 5531 5525 5559 5569 5578 5578 5583 5590 5559 5563 5555 5578 5579 5590 5622 5633 5638 5644 5642 5637 5631 5629
5425 5426 5426 5428 5434 5441 5442 5453 5457 5473 5480 5496 5498 5502 5504 5509 5515 5516 5515 5527 5544 5550 5548 5535 5543 5553 5562 5572 5579 5573 5573 5577 5553 5500 5538 5570 5593 5620 5622 5624 5626 5628 5626 5622 5618
5419 5417 5418 5426 5431 5434 5429 5443 5450 5462 5473 5482 5497 5501 5509 5508 5511 5512 5516 5527 5539 5549 5555 5547 5537 5548 5555 5563 5567 5571 5572 5558 5521 5516 5537 5567 5580 5600 5609 5613 5612 5612 5611 5611 5609
5412 5403 5414 5424 5427 5422 5416 5425 5443 5459 5466 5471 5480 5492 5507 5511 5514 5517 5511 5530 5533 5537 5546 5543 5547 5531 5545 5544 5545 5554 5555 5556 5553 5536 5549 5547 5581 5601 5612 5607 5608 5606 5606 5602 5600
5398 5388 5411 5420 5410 5406 5419 5425 5443 5449 5459 5457 5463 5477 5500 5506 5508 5510 5514 5525 5535 5535 5532 5537 5531 5521 5528 5541 5545 5551 5554 5555 5547 5542 5521 5538 5570 5604 5608 5605 5604 5602 5600 5595 5592
5387 5387 5406 5415 5390 5399 5411 5425 5439 5445 5451 5455 5461 5467 5478 5483 5498 5511 5513 5525 5525 5533 5529 5528 5509 5505 5496 5506 5525 5533 5545 5547 5539 5535 5544 5547 5569 5591 5595 5599 5597 5593 5587 5586 5582
5379 5369 5384 5394 5399 5394 5402 5409 5419 5439 5446 5453 5455 5462 5467 5472 5477 5496 5508 5513 5521 5523 5524 5525 5511 5519 5532 5540 5532 5534 5544 5541 5545 5506 5541 5552 5580 5586 5584 5584 5583 5582 5580 5576 5576
5374 5373 5365 5390 5385 5397 5407 5410 5417 5420 5440 5447 5455 5461 5462 5464 5468 5483 5501 5508 5512 5515 5516 5519 5496 5514 5524 5530 5529 5537 5543 5544 5540 5552 5554 5567 5564 5582 5580 5579 5578 5576 5574 5571 5568
5371 5370 5372 5369 5384 5387 5397 5394 5411 5423 5431 5435 5440 5452 5458 5462 5468 5469 5475 5497 5497 5507 5510 5511 5488 5504 5480 5513 5523 5529 5530 5545 5547 5544 5546 5549 5554 5572 5579 5579 5576 5573 5565 5566 5565
5381 5378 5374 5365 5368 5374 5373 5403 5411 5421 5429 5437 5440 5447 5447 5468 5473 5473 5475 5480 5486 5504 5509 5504 5482 5465 5462 5483 5509 5497 5517 5525 5538 5546 5551 5552 5574 5572 5568 5567 5570 5565 5562 5565 5566